Flag for Senegal Weather past 2 weeks in Thiès, Senegal

Now
82 °F

Passing clouds.


Feels Like: 89 °F
Forecast: 78 / 90 °F
Wind: 10 mph from South

Location: Dakar / Yoff

Current Time: Jul 29, 2015 at 12:59:44 AM

Latest Report: Jul 29, 2015 at 12:30 AM


Visibility: N/A

Pressure: 29.92 "Hg

Humidity: 79%

Dew point: 75 °F

Location of ThièsLocation

Historic Weather in Thiès — Graph

°F

Thiès temperature yesterday

Maximum temperature yesterday: 88 °F (at 3:00 PM)
Minimum temperature yesterday: 81 °F (at 12:00 AM)
Average temperature yesterday: 83 °F

Past Weeks' High & Low Weather Summary

 TemperatureHumidityPressure
High90 °F (Jul 18, 1:30 PM)100% (Jul 15, 10:30 AM)30.01 "Hg (Jul 15, 10:30 AM)
Low73 °F (Jul 15, 8:01 AM)59% (Jul 23, 1:00 PM)29.80 "Hg (Jul 16, 4:30 PM)
Average82 °F76%29.90 "Hg
* Reported Midnight between Jul 13 and Jul 14 — Midnight between Jul 28 and Jul 29, Thiès, Weather by CustomWeather, © 2015

Note: Actual official high and low records may vary slightly from our data, if they occured in-between our weather recording intervals... More about our weather records

Advertising

Thiès weather history for previous 24 hours

 ConditionsComfort  
Time TempWeatherWind HumidityBarometerVisibility
12:00 AM
Wed, Jul 29
82 °FPassing clouds.10 mph84%29.92 "HgN/A
11:30 PM
Tue, Jul 28
82 °FPassing clouds.3 mph84%29.92 "HgN/A
11:00 PM82 °FPartly cloudy.3 mph84%29.92 "HgN/A
9:00 PM82 °FPassing clouds.5 mph79%29.89 "HgN/A
8:30 PM82 °FThunderstorms. Passing clouds.No wind79%29.89 "HgN/A
8:00 PM82 °FThunderstorms. Passing clouds.2 mph79%29.89 "HgN/A
7:30 PM84 °FThunderstorms. Scattered clouds.3 mph74%29.86 "HgN/A
7:00 PM82 °FThunderstorms. Scattered clouds.7 mph79%29.86 "HgN/A
6:00 PM82 °FScattered clouds.7 mph79%29.86 "HgN/A
5:30 PM82 °FThunderstorms. Scattered clouds.7 mph79%29.83 "HgN/A
5:00 PM84 °FThunderstorms. Scattered clouds.9 mph74%29.83 "HgN/A
4:30 PM84 °FThunderstorms. Scattered clouds.8 mph79%29.83 "Hg6 mi
4:01 PM84 °FScattered clouds.9 mph74%29.83 "HgN/A
3:30 PM86 °FScattered clouds.12 mph70%29.83 "HgN/A
3:00 PM88 °FScattered clouds.12 mph66%29.83 "HgN/A
2:30 PM86 °FPartly sunny.8 mph70%29.83 "HgN/A
2:00 PM86 °FPartly sunny.8 mph70%29.86 "HgN/A
1:30 PM86 °FPartly sunny.9 mph70%29.86 "HgN/A
1:00 PM86 °FPartly sunny.9 mph70%29.86 "HgN/A
12:30 PM84 °FPartly sunny.10 mph74%29.89 "HgN/A
12:00 PM84 °FPartly sunny.10 mph74%29.89 "HgN/A
11:30 AM84 °FPartly sunny.8 mph74%29.89 "HgN/A
11:00 AM84 °FPartly sunny.8 mph74%29.89 "HgN/A
10:30 AM84 °FPartly sunny.7 mph74%29.89 "HgN/A
10:00 AM82 °FScattered clouds.8 mph79%29.89 "HgN/A
9:30 AM84 °FScattered clouds.9 mph74%29.86 "HgN/A
9:00 AM82 °FScattered clouds.6 mph79%29.86 "HgN/A
8:30 AM82 °FScattered clouds.6 mph79%29.86 "HgN/A
8:00 AM81 °FBroken clouds.7 mph84%29.86 "HgN/A
7:30 AM81 °FBroken clouds.7 mph84%29.86 "HgN/A
7:00 AM81 °FScattered clouds.7 mph84%29.86 "HgN/A
6:30 AM81 °FPassing clouds.5 mph84%29.86 "HgN/A
6:00 AM81 °FThunderstorms. Passing clouds.7 mph84%29.86 "HgN/A
5:30 AM81 °FThunderstorms. Passing clouds.7 mph84%29.86 "HgN/A
5:00 AM81 °FThunderstorms. Passing clouds.5 mph84%29.86 "HgN/A
4:30 AM81 °FThunderstorms. Passing clouds.6 mph84%29.86 "HgN/A
3:30 AM81 °FThunderstorms. Passing clouds.7 mph84%29.86 "HgN/A
3:00 AM81 °FThunderstorms. Passing clouds.7 mph84%29.86 "HgN/A
2:30 AM81 °FThunderstorms. Passing clouds.8 mph84%29.86 "HgN/A
2:00 AM81 °FThunderstorms. Passing clouds.7 mph84%29.89 "HgN/A
1:30 AM81 °FPassing clouds.7 mph84%29.89 "HgN/A
1:00 AM81 °FThunderstorms. Partly cloudy.6 mph84%29.89 "HgN/A
12:30 AM81 °FThunderstorms. Partly cloudy.5 mph84%29.89 "HgN/A
12:00 AM81 °FThunderstorms. Partly cloudy.3 mph84%29.89 "HgN/A
Weather by CustomWeather, © 2015

See weather overviewHow to use our weather pages